DECAYED

THORAD AGENA D DEB, 17716 (Decayed)

Orbit data source: Space-Track

THORAD AGENA D DEB, 17716 was space debris in SSO originally from a launch on Wed, 08 Apr 1970 UTC launched from the Air Force Western Test Range (AFWTR). Debris objects in space refer to the collection of defunct objects orbiting the Earth. Examples of debris include non-operational satellites, rocket bodies, and fragments generated from explosions, collisions, or faulty payload assembly.

Not visible in the next 10 days
Identifier
17716, 1970-025PE
Orbit
Decayed
Country
Flag of USUS
Related business
Manufacturer
Unknown
Mission
Decayed spacecraft
Bus & Motor
Unknown
Mass
Unknown
Launch date (UTC)
1970-04-08 (56 years ago)
Launch vehicle
Unknown
Launch site
Air Force Western Test Range (AFWTR)
Object type
Payload
Rocket body
Debris
Shape & HBR
Unknown shape, 0.1 m
Radar Cross Section
Small (<0.1 m²)

Expand to show TLE details & history
Last TLE update: 11 months ago

TLE from 11 months ago
0 THORAD AGENA D DEB
1 17716U 70025PE  25025.39170399  .08161675  12993+0  32040-1 0  9998
2 17716  99.4502 191.5070 0024962 338.4424  21.5790 15.92884453 46044
Epoch: 2025-01-25T09:24Z
TLE epoch observation values (Epoch: 2025-01-25T09:24:03.224Z)
Latitude
-0.00007°
Longitude
-74.44761°
Altitude
281.85 km
Speed
7.747 km/s
True Right ascension
12h 46m 01s
True Declination
0° 00' 00"
Sunlit
Object was in full shadow at epoch
Visualization orbit readout
Latitude
Unknown
Longitude
Unknown
Altitude
Unknown
Speed
Unknown
Apparent Right ascension
Unknown
Apparent Declination
Unknown
Sunlit
N/A
Visualization observer readout
Local Sidereal Time
05:54:55
Azimuth
Unknown
Elevation
Unknown
Doppler factor
Unknown
Orbital elements
Apogee altitude
307.835 km
Perigee altitude
274.539 km
Semi-major axis
6,669.324 km
Eccentricity
0.0025
Inclination
99.4502°
RAAN
191.507°
Arg. of periapsis
338.4424°
True anomaly
21.68451°
Mean anomaly
21.579°
Eccentric anomaly
21.63172°
Mean motion
3.98493 °/min
Orbital period
90.34 mins
BSTAR
0.03204
Loading maneuver chart data...
Computing Atmospheric mass density...

Documentation

Showing up to 5 results
|